This demonstration page uses our WeatherBlox Daily Observations layout. Learn more.

Left ArrowRight Arrow

Hourly Observations for February 10, 2018

Temp ( °F °C ) Dew Point ( °F °C ) Humidity (%) Winds ( mph kmh ) Pressure ( in mb ) Visibility ( mi km ) Precip ( " mm )
12:08 am 00:08 Cloudy with Light Snow 5 -15 0 -18 78 78 N 14 22 30.50 1033 3 5 0.00 0.00
12:20 am 00:20 Cloudy with Light Snow 5 -15 0 -18 78 78 NNE 14 22 30.48 1032 2 3 0.00 0.00
12:28 am 00:28 Cloudy with Light Snow 5 -15 0 -18 78 78 N 12 19 30.48 1032 1 2 0.00 0.00
12:43 am 00:43 Cloudy with Light Snow 5 -15 0 -17.8 79 79 N 14 22 30.50 1033 3 4 0.00 0.03
12:53 am 00:53 Cloudy with Light Snow 5 -15 0 -17.8 79 79 N 16 26 30.41 1030 3 5 0.00 0.03
1:13 am 01:13 Cloudy with Light Snow 5 -15 0 -18 78 78 N 14 22 30.48 1032 3 5 0.00 0.00
1:53 am 01:53 Cloudy with Light Snow 5 -15 0 -17.8 79 79 N 13 20 30.41 1030 7 11 0.00 0.03
2:53 am 02:53 Cloudy 5 -15 0 -17.8 79 79 N 17 28 30.41 1030 10 16 0.00 0.03
3:53 am 03:53 Mostly Cloudy 5 -15 0 -17.8 79 79 N 12 19 30.41 1030 10 16 0.00 0.00
4:53 am 04:53 Partly Cloudy 4 -15.6 -1 -18.3 80 80 N 13 20 30.40 1030 10 16 0.00 0.00
5:53 am 05:53 Clear 2 -16.7 -3 -19.4 80 80 N 13 20 30.40 1029 10 16 0.00 0.00
6:53 am 06:53 Clear -1 -18.3 -6 -21.1 79 79 NNW 8 13 30.40 1030 10 16 0.00 0.03
7:53 am 07:53 Sunny 0 -17.8 -5 -20.6 79 79 N 9 15 30.38 1029 10 16 0.00 0.00
8:53 am 08:53 Sunny with Light Snow 0 -17.8 -5 -20.6 79 79 N 10 17 30.38 1029 10 16 0.00 0.03
9:53 am 09:53 Mostly Cloudy with Light Snow 2 -16.7 -4 -20 76 76 NNE 9 15 30.37 1029 10 16 0.00 0.03
10:53 am 10:53 Sunny with Light Snow 4 -15.6 -3 -19.4 73 73 NNE 9 15 30.37 1029 10 16 0.00 0.03
11:53 am 11:53 Sunny with Light Snow 6 -14.4 -2 -18.9 69 69 NNE 10 17 30.35 1028 10 16 0.00 0.03
12:53 pm 12:53 Mostly Cloudy with Light Snow 8 -13.3 0 -17.8 69 69 NNE 6 9 30.32 1027 9 14 0.00 0.03
1:53 pm 13:53 Cloudy 9 -12.8 0 -17.8 66 66 N 6 9 30.29 1026 10 16 0.00 0.03
2:53 pm 14:53 Cloudy 9 -12.8 0 -17.8 66 66 N 8 13 30.28 1025 10 16 0.00 0.00
3:53 pm 15:53 Cloudy with Light Snow 8 -13.3 1 -17.2 73 73 N 8 13 30.27 1025 2 3 0.00 0.03
4:36 pm 16:36 Cloudy with Light Snow 8 -13.3 2 -16.7 76 76 N 9 15 30.33 1027 2 3 0.00 0.03
4:53 pm 16:53 Cloudy with Light Snow 8 -13.3 2 -16.7 76 76 N 9 15 30.26 1025 1 2 0.00 0.03
5:08 pm 17:08 Mostly Cloudy with Light Snow 9 -13 3 -16 78 78 NNW 10 17 30.30 1026 1 1 0.00 0.00
5:25 pm 17:25 Cloudy with Light Snow 8 -13.3 3 -16.1 80 80 NNW 8 13 30.30 1026 1 2 0.00 0.03
5:53 pm 17:53 Cloudy with Light Snow 8 -13.3 2 -16.7 76 76 NNW 10 17 30.26 1025 2 3 0.00 0.03
6:10 pm 18:10 Cloudy with Light Snow 8 -13.3 3 -16.1 80 80 N 9 15 30.30 1026 3 4 0.00 0.03
6:37 pm 18:37 Cloudy with Light Snow 8 -13.3 3 -16.1 80 80 N 9 15 30.30 1026 2 3 0.00 0.03
6:53 pm 18:53 Cloudy with Light Snow 8 -13.3 3 -16.1 80 80 NNW 9 15 30.25 1025 2 3 0.00 0.03
7:01 pm 19:01 Cloudy with Light Snow 8 -13.3 3 -16.1 80 80 NNW 10 17 30.30 1026 2 3 0.00 0.03
7:14 pm 19:14 Cloudy with Light Snow 9 -13 3 -16 78 78 NNW 10 17 30.30 1026 2 3 0.00 0.00
7:37 pm 19:37 Cloudy with Light Snow 8 -13.3 3 -16.1 80 80 NNW 9 15 30.30 1026 3 5 0.00 0.03
7:53 pm 19:53 Cloudy with Light Snow 8 -13.3 3 -16.1 80 80 NW 9 15 30.27 1025 3 4 0.00 0.03
8:26 pm 20:26 Cloudy with Light Snow 9 -13 3 -16 78 78 NNW 7 11 30.30 1026 2 3 0.00 0.00
8:37 pm 20:37 Cloudy with Light Snow 8 -13.3 3 -16.1 80 80 NNW 10 17 30.30 1026 3 5 0.00 0.03
8:53 pm 20:53 Cloudy with Light Snow 8 -13.3 4 -15.6 83 83 NNW 9 15 30.27 1025 3 4 0.00 0.03
9:15 pm 21:15 Cloudy with Light Snow 8 -13.3 4 -15.6 83 83 NW 8 13 30.33 1027 3 5 0.00 0.03
9:37 pm 21:37 Cloudy with Light Snow 9 -12.8 4 -15.6 80 80 WNW 7 11 30.33 1027 3 4 0.00 0.03
9:47 pm 21:47 Cloudy with Light Snow 9 -13 5 -15 85 85 WNW 8 13 30.33 1027 2 2 0.00 0.00
9:53 pm 21:53 Cloudy with Light Snow 9 -12.8 5 -15 84 84 WNW 7 11 30.27 1025 2 2 0.00 0.03
10:19 pm 22:19 Cloudy with Light Snow 9 -12.8 5 -15 84 84 W 6 9 30.30 1026 2 3 0.01 0.25
10:37 pm 22:37 Cloudy with Light Snow 9 -12.8 5 -15 84 84 WNW 6 9 30.30 1026 3 5 0.01 0.25
10:53 pm 22:53 Cloudy with Light Snow 9 -12.8 6 -14.4 88 88 Calm 30.24 1024 4 6 0.01 0.25
11:53 pm 23:53 Cloudy 9 -12.8 5 -15 84 84 WNW 7 11 30.24 1024 8 13 0.00 0.03

Powered by AerisWeather